EW9945 Weather Reports


Display with metric or nautical units.
time (UTC)temp
F
wind
direction
speed
MPH
gust
MPH
rain 1hr
in
rain 24hr
in
rain mn
in
humidity
%
barometer
mb
20210615072029 54 311 0.0 0.0 0.00 0.08 0.00 94 1008.8
20210615071545 54 311 0.0 0.0 0.00 0.08 0.00 94 1008.7
20210615071026 54 311 0.0 4.0 0.00 0.09 0.00 93 1008.7
20210615070039 54 311 1.0 3.0 0.00 0.09 0.00 94 1008.8
20210615065534 54 311 0.0 1.0 0.00 0.09 0.00 94 1008.8
20210615065029 54 311 0.0 0.0 0.00 0.09 0.00 94 1008.8
20210615064553 54 311 0.0 0.0 0.00 0.09 0.00 94 1008.9
20210615064033 54 311 0.0 0.0 0.00 0.09 0.00 94 1008.9
20210615063534 54 311 0.0 0.0 0.00 0.09 0.00 93 1008.8
20210615063120 54 311 0.0 0.0 0.00 0.09 0.00 93 1008.9
20210615062557 54 311 0.0 0.0 0.00 0.09 0.00 93 1008.9
20210615062037 54 311 0.0 3.0 0.00 0.09 0.00 94 1008.8
20210615061525 54 311 1.0 3.0 0.00 0.09 0.00 94 1008.7
20210615061023 54 311 0.0 2.0 0.00 0.11 0.00 93 1008.7
20210615060032 54 311 0.0 0.0 0.00 0.11 0.00 93 1008.8
20210615055523 54 311 0.0 0.0 0.00 0.11 0.00 93 1008.8
20210615055038 54 311 0.0 0.0 0.00 0.11 0.00 93 1008.7
20210615054533 55 311 0.0 2.0 0.00 0.11 0.00 93 1008.6
20210615054019 55 311 0.0 2.0 0.00 0.11 0.00 93 1008.6
20210615053519 55 311 0.0 2.0 0.00 0.11 0.00 93 1008.7
20210615053036 54 311 0.0 0.0 0.00 0.11 0.00 93 1008.5
20210615052527 55 311 0.0 2.0 0.00 0.11 0.00 93 1008.5
20210615052017 55 311 0.0 4.0 0.00 0.11 0.00 93 1008.5
20210615051605 55 311 1.0 4.0 0.00 0.11 0.00 93 1008.6
20210615051016 55 311 0.0 4.0 0.00 0.14 0.00 93 1008.7
20210615050032 55 311 0.0 3.0 0.00 0.14 0.00 93 1008.6
20210615045525 55 312 0.0 0.0 0.00 0.14 0.00 93 1008.5
20210615045016 55 312 0.0 3.0 0.00 0.14 0.00 92 1008.3
20210615044607 55 312 0.0 3.0 0.00 0.14 0.00 92 1008.2
20210615044020 56 312 0.0 0.0 0.00 0.14 0.00 92 1008.1
20210615043514 56 311 0.0 1.0 0.00 0.14 0.00 93 1008.0
20210615043032 56 312 0.0 3.0 0.00 0.14 0.00 92 1008.0
20210615042512 56 312 1.0 3.0 0.00 0.14 0.00 92 1008.0
20210615042011 56 311 0.0 3.0 0.00 0.14 0.00 92 1007.9
20210615041513 56 312 0.0 3.0 0.00 0.14 0.00 92 1008.0
20210615041011 57 312 0.0 3.0 0.00 0.18 0.14 92 1008.1
20210615040010 57 311 0.0 3.0 0.00 0.18 0.14 91 1008.0
20210615035520 57 312 0.0 3.0 0.00 0.18 0.14 91 1008.1
20210615035012 58 312 1.0 3.0 0.00 0.18 0.14 90 1008.2
20210615034509 58 312 0.0 0.0 0.00 0.18 0.14 91 1008.2
20210615034010 58 312 0.0 1.0 0.00 0.18 0.14 91 1008.1
20210615033512 58 312 0.0 1.0 0.00 0.18 0.14 90 1008.2
20210615033010 58 312 0.0 0.0 0.00 0.18 0.14 91 1008.1
20210615032512 58 312 0.0 1.0 0.00 0.18 0.14 90 1008.1
20210615032008 58 312 0.0 1.0 0.00 0.18 0.14 90 1007.9
20210615031515 58 312 0.0 0.0 0.00 0.18 0.14 90 1008.0
20210615031008 59 312 0.0 0.0 0.00 0.22 0.14 90 1008.0
20210615030009 59 312 0.0 0.0 0.00 0.22 0.14 90 1008.1
20210615025503 59 312 0.0 0.0 0.00 0.22 0.14 90 1008.1
20210615025010 59 312 0.0 1.0 0.00 0.22 0.14 91 1008.2
20210615024503 59 312 0.0 1.0 0.00 0.22 0.14 91 1008.3
20210615024002 59 312 0.0 2.0 0.00 0.22 0.14 91 1008.2
20210615023503 59 312 0.0 3.0 0.00 0.22 0.14 90 1008.2
20210615023004 59 312 1.0 3.0 0.00 0.22 0.14 89 1008.3
20210615022510 60 312 1.0 3.0 0.00 0.22 0.14 89 1008.3
20210615022004 60 312 0.0 4.0 0.00 0.22 0.14 89 1008.5
20210615021503 60 312 0.0 6.0 0.00 0.22 0.14 88 1008.5
20210615021003 61 312 4.0 6.0 0.00 0.22 0.14 85 1008.5
20210615020002 63 313 0.0 0.0 0.00 0.22 0.14 82 1008.4
20210615015501 63 313 0.0 0.0 0.00 0.22 0.14 81 1008.3
20210615015004 63 313 0.0 0.0 0.00 0.22 0.14 81 1008.2
20210615014502 63 313 0.0 0.0 0.00 0.22 0.14 82 1008.1
20210615014004 63 313 0.0 0.0 0.00 0.22 0.14 83 1008.1
20210615013501 63 313 0.0 0.0 0.00 0.22 0.14 82 1008.0
20210615013002 63 313 0.0 0.0 0.00 0.22 0.14 82 1008.0
20210615012504 64 313 0.0 0.0 0.01 0.22 0.14 82 1007.9
20210615012003 64 313 0.0 0.0 0.01 0.22 0.14 82 1007.9
20210615011502 64 313 0.0 1.0 0.01 0.22 0.14 81 1007.9
20210615011124 65 313 0.0 1.0 0.01 0.22 0.14 80 1007.9
20210615010600 65 313 0.0 1.0 0.01 0.22 0.14 79 1007.8
20210615010002 65 313 0.0 1.0 0.01 0.22 0.14 79 1007.8
20210615005501 65 313 0.0 0.0 0.01 0.22 0.14 79 1007.8
20210615005000 66 313 0.0 0.0 0.01 0.22 0.14 79 1007.8
20210615004501 66 313 0.0 0.0 0.01 0.22 0.14 79 1007.9
20210615004005 65 313 0.0 1.0 0.01 0.22 0.14 79 1007.7
20210615003501 65 313 0.0 1.0 0.01 0.22 0.14 80 1007.7
20210615003222 65 313 0.0 3.0 0.01 0.22 0.14 79 1007.7
20210615002600 66 313 0.0 3.0 0.01 0.22 0.14 79 1007.7
20210615002059 66 313 0.0 2.0 0.00 0.21 0.13 79 1007.6
20210615001636 66 313 0.0 4.0 0.00 0.21 0.13 79 1007.6
20210615001058 67 313 0.0 4.0 0.00 0.21 0.13 77 1007.6
20210615000634 67 313 0.0 0.0 0.00 0.21 0.13 75 1007.5
20210615000022 67 313 0.0 1.0 0.00 0.21 0.13 75 1007.5
20210614235525 67 313 0.0 1.0 0.00 0.21 0.13 76 1007.6
20210614235039 67 313 0.0 2.0 0.00 0.21 0.13 76 1007.5
20210614234515 67 313 0.0 2.0 0.00 0.21 0.13 75 1007.5
20210614234015 67 313 0.0 2.0 0.00 0.21 0.13 74 1007.3
20210614233521 67 313 0.0 4.0 0.00 0.21 0.13 74 1007.4
20210614233112 68 314 1.0 4.0 0.00 0.21 0.13 71 1007.3
20210614232514 69 315 0.0 2.0 0.00 0.21 0.13 69 1007.3
20210614232015 70 315 0.0 2.0 0.00 0.21 0.13 69 1007.3
20210614231527 69 315 0.0 2.0 0.00 0.21 0.13 72 1007.2
20210614231018 69 315 0.0 5.0 0.00 0.21 0.13 71 1007.2
20210614230125 70 300 3.0 6.0 0.00 0.21 0.13 68 1007.0
20210614225529 70 314 3.0 6.0 0.00 0.21 0.13 67 1006.9
20210614225037 71 315 2.0 6.0 0.00 0.21 0.13 67 1007.0
20210614224546 71 5 2.0 6.0 0.00 0.21 0.13 67 1007.0
20210614224025 71 144 1.0 3.0 0.00 0.21 0.13 67 1007.1
20210614223526 70 144 1.0 4.0 0.00 0.21 0.13 70 1007.1
20210614222523 70 143 0.0 2.0 0.00 0.21 0.13 67 1007.2
20210614222019 70 143 0.0 3.0 0.00 0.21 0.13 70 1007.2
20210614221533 69 143 0.0 3.0 0.00 0.21 0.13 70 1007.3
20210614221018 68 143 0.0 3.0 0.00 0.21 0.13 72 1007.4
20210614220519 68 143 0.0 6.0 0.00 0.21 0.13 75 1007.4
20210614220022 68 342 1.0 9.0 0.00 0.21 0.13 73 1007.5
20210614215518 68 314 5.0 9.0 0.00 0.21 0.13 72 1007.4
20210614215008 68 204 1.0 6.0 0.00 0.21 0.13 71 1007.5
20210614214505 68 307 2.0 6.0 0.00 0.21 0.13 73 1007.6
20210614214010 67 139 0.0 8.0 0.00 0.21 0.13 77 1007.7
20210614213503 67 139 3.0 8.0 0.00 0.21 0.13 75 1007.7
20210614213018 67 177 0.0 6.0 0.00 0.21 0.13 74 1007.6
20210614212004 65 132 0.0 7.0 0.00 0.21 0.13 79 1007.6
20210614211501 65 132 4.0 7.0 0.00 0.21 0.13 78 1007.7
20210614210501 65 130 2.0 4.0 0.00 0.21 0.13 79 1007.9
20210614210006 65 124 0.0 3.0 0.00 0.21 0.13 79 1007.7
20210614205100 65 124 2.0 5.0 0.00 0.21 0.13 78 1007.7
20210614204714 66 124 2.0 4.0 0.00 0.21 0.13 75 1007.6
20210614204115 67 124 0.0 2.0 0.00 0.21 0.13 72 1007.8
20210614203633 67 124 0.0 2.0 0.00 0.21 0.13 74 1007.6
20210614203131 68 124 0.0 3.0 0.00 0.21 0.13 72 1007.5
20210614202602 67 124 0.0 4.0 0.00 0.21 0.13 72 1007.7
20210614202100 68 124 0.0 4.0 0.00 0.21 0.13 73 1007.7
20210614201645 68 124 0.0 3.0 0.00 0.21 0.13 72 1007.7
20210614201109 67 124 0.0 3.0 0.00 0.21 0.13 75 1007.6
20210614200559 64 124 0.0 2.0 0.00 0.21 0.13 79 1007.6
20210614200112 64 124 0.0 2.0 0.00 0.21 0.13 77 1007.8
20210614195057 63 124 0.0 3.0 0.00 0.21 0.13 82 1008.0
20210614194636 62 124 0.0 3.0 0.00 0.21 0.13 86 1007.8
20210614194058 61 124 0.0 3.0 0.00 0.21 0.13 87 1007.8
20210614193558 60 124 0.0 3.0 0.00 0.21 0.13 87 1007.7
20210614193137 60 124 0.0 1.0 0.00 0.21 0.13 90 1007.6
20210614192609 59 124 0.0 3.0 0.00 0.21 0.13 92 1007.8
20210614192025 58 124 0.0 4.0 0.00 0.21 0.13 91 1007.8
20210614191603 58 124 2.0 4.0 0.00 0.21 0.13 91 1008.1
20210614191025 57 124 0.0 4.0 0.00 0.21 0.13 90 1007.9
20210614190524 57 124 3.0 5.0 0.00 0.21 0.13 89 1007.7
20210614190115 57 124 1.0 5.0 0.00 0.21 0.13 89 1008.4
20210614185523 57 124 0.0 7.0 0.00 0.21 0.13 89 1008.8
20210614185041 58 114 5.0 7.0 0.00 0.21 0.13 88 1008.7
20210614184620 58 60 2.0 9.0 0.00 0.21 0.13 88 1009.0
20210614184022 58 271 4.0 10.0 0.00 0.21 0.13 88 1009.6
20210614183525 58 308 7.0 14.0 0.00 0.21 0.13 87 1009.7
20210614183025 58 310 9.0 12.0 0.00 0.21 0.13 86 1009.4
20210614182030 59 304 8.0 13.0 0.00 0.21 0.13 83 1009.1
20210614181625 60 313 6.0 15.0 0.00 0.21 0.13 80 1009.0
20210614181036 62 305 8.0 19.0 0.00 0.21 0.13 77 1008.7
20210614180527 63 332 11.0 22.0 0.00 0.21 0.13 73 1008.6
20210614180059 64 301 13.0 22.0 0.00 0.21 0.13 70 1008.5
20210614175525 66 331 15.0 30.0 0.00 0.21 0.13 66 1008.3
20210614175026 67 307 19.0 30.0 0.00 0.21 0.13 63 1008.1
20210614174543 70 304 11.0 16.0 0.00 0.21 0.13 60 1007.9
20210614174025 70 292 10.0 13.0 0.00 0.21 0.13 57 1007.8
20210614173533 71 298 6.0 11.0 0.00 0.21 0.13 56 1007.8
20210614173040 72 303 5.0 11.0 0.00 0.21 0.13 55 1007.8
20210614172035 74 325 6.0 11.0 0.01 0.21 0.13 52 1007.6
20210614171606 75 307 3.0 5.0 0.01 0.21 0.13 51 1007.7
20210614171036 76 303 1.0 5.0 0.01 0.21 0.13 48 1007.8
20210614170536 77 314 1.0 3.0 0.01 0.21 0.13 48 1007.8
20210614170054 76 314 0.0 5.0 0.01 0.21 0.13 47 1007.8
20210614165537 76 314 1.0 6.0 0.01 0.21 0.13 51 1007.8
20210614164641 75 316 2.0 12.0 0.01 0.21 0.13 47 1007.8
20210614164040 75 317 7.0 12.0 0.01 0.21 0.13 46 1007.6
20210614163541 75 333 8.0 11.0 0.01 0.21 0.13 46 1007.6
20210614163146 75 314 8.0 14.0 0.01 0.21 0.13 46 1007.6
20210614162559 75 325 5.0 14.0 0.01 0.21 0.13 48 1007.6
20210614161618 74 309 2.0 9.0 0.00 0.20 0.12 53 1007.9
20210614161053 74 300 5.0 13.0 0.00 0.20 0.12 51 1008.0
20210614160539 75 307 7.0 13.0 0.00 0.20 0.12 51 1007.9
20210614160052 74 309 3.0 8.0 0.00 0.20 0.12 53 1007.9
20210614155536 74 291 3.0 10.0 0.00 0.20 0.12 54 1008.0
20210614154626 74 323 4.0 9.0 0.00 0.20 0.12 55 1008.1
20210614154032 73 309 4.0 9.0 0.00 0.20 0.12 57 1008.2
20210614153529 72 312 5.0 8.0 0.00 0.20 0.12 57 1008.1
20210614153109 72 317 2.0 10.0 0.00 0.20 0.12 57 1008.1
20210614152535 72 290 5.0 13.0 0.00 0.20 0.12 55 1008.3
20210614152033 73 315 6.0 13.0 0.00 0.20 0.12 55 1008.2
20210614151553 73 300 5.0 12.0 0.00 0.20 0.12 59 1008.1
20210614151026 73 317 5.0 10.0 0.00 0.20 0.12 56 1008.3
20210614150542 73 310 4.0 11.0 0.00 0.20 0.12 58 1008.3
20210614150028 72 327 5.0 11.0 0.00 0.20 0.12 58 1008.3
20210614145529 72 327 6.0 11.0 0.00 0.20 0.12 60 1008.4
20210614145022 72 328 6.0 11.0 0.00 0.20 0.12 61 1008.5
20210614144529 72 333 4.0 10.0 0.00 0.20 0.12 62 1008.4
20210614144020 72 245 3.0 11.0 0.00 0.20 0.12 63 1008.4
20210614143520 71 331 6.0 11.0 0.00 0.20 0.12 61 1008.3
20210614143021 71 328 5.0 10.0 0.00 0.20 0.12 61 1008.3
20210614142525 71 307 2.0 8.0 0.00 0.20 0.12 63 1008.4
20210614141544 70 321 4.0 12.0 0.00 0.20 0.12 65 1008.4
20210614141017 70 311 4.0 12.0 0.01 0.20 0.12 65 1008.4
20210614140517 69 316 8.0 11.0 0.01 0.20 0.12 65 1008.4
20210614140033 69 317 5.0 12.0 0.01 0.20 0.12 66 1008.5
20210614135529 69 318 6.0 13.0 0.01 0.20 0.12 66 1008.5
20210614135029 69 306 8.0 13.0 0.01 0.20 0.12 66 1008.4
20210614134536 69 319 7.0 12.0 0.01 0.20 0.12 67 1008.5
20210614134030 68 320 4.0 10.0 0.01 0.20 0.12 71 1008.5
20210614133534 68 311 4.0 10.0 0.01 0.20 0.12 72 1008.5
20210614133018 68 313 2.0 11.0 0.01 0.20 0.12 73 1008.4
20210614132518 68 312 6.0 11.0 0.01 0.20 0.12 70 1008.5
20210614132025 67 317 3.0 12.0 0.01 0.20 0.12 74 1008.5
20210614131551 67 313 6.0 11.0 0.01 0.20 0.12 72 1008.4
20210614131030 67 317 6.0 11.0 0.00 0.19 0.11 72 1008.5
20210614130530 67 306 4.0 9.0 0.00 0.19 0.11 74 1008.4
20210614130102 66 286 2.0 10.0 0.00 0.19 0.11 76 1008.4
20210614125534 66 304 4.0 10.0 0.00 0.19 0.11 76 1008.4
20210614125045 66 319 2.0 8.0 0.00 0.19 0.11 77 1008.5
20210614124607 65 317 3.0 8.0 0.00 0.19 0.11 77 1008.5
20210614124023 65 318 3.0 7.0 0.00 0.19 0.11 77 1008.4
20210614123523 65 282 2.0 7.0 0.00 0.19 0.11 78 1008.4
20210614123046 65 306 3.0 6.0 0.00 0.19 0.11 77 1008.3
20210614122552 65 304 3.0 5.0 0.00 0.19 0.11 79 1008.4
20210614122036 65 175 1.0 5.0 0.00 0.19 0.11 81 1008.4
20210614121042 64 319 0.0 7.0 0.01 0.19 0.11 83 1008.5
20210614120523 64 319 2.0 8.0 0.01 0.19 0.11 82 1008.5
20210614120040 64 322 0.0 2.0 0.01 0.19 0.11 83 1008.4
20210614115522 64 317 0.0 3.0 0.01 0.19 0.11 82 1008.4
20210614115017 64 317 0.0 3.0 0.01 0.19 0.11 83 1008.4
20210614114556 64 317 0.0 1.0 0.01 0.19 0.11 83 1008.4
20210614114017 64 317 0.0 4.0 0.01 0.19 0.11 83 1008.3
20210614113516 64 317 0.0 5.0 0.01 0.19 0.11 83 1008.3
20210614113100 64 298 1.0 5.0 0.01 0.19 0.11 85 1008.4
20210614112515 64 287 0.0 4.0 0.01 0.19 0.11 85 1008.2
20210614112025 64 287 1.0 4.0 0.01 0.19 0.11 85 1008.1
20210614111022 63 287 0.0 4.0 0.00 0.18 0.10 87 1008.4
20210614110517 63 282 1.0 4.0 0.00 0.18 0.10 87 1008.4
20210614110044 63 180 0.0 2.0 0.00 0.18 0.10 88 1008.3
20210614105526 63 180 0.0 2.0 0.01 0.18 0.10 89 1008.2
20210614105018 62 180 0.0 4.0 0.01 0.18 0.10 89 1008.3
20210614104547 62 180 0.0 5.0 0.01 0.18 0.10 89 1008.3
20210614104039 62 180 0.0 4.0 0.01 0.18 0.10 90 1008.2
20210614103516 62 180 1.0 3.0 0.01 0.18 0.10 90 1008.3
20210614103051 62 180 0.0 3.0 0.01 0.18 0.10 91 1008.3
20210614102518 62 180 0.0 4.0 0.01 0.18 0.10 91 1008.2
20210614102016 61 180 0.0 4.0 0.01 0.18 0.10 92 1008.2
20210614101016 61 162 0.0 2.0 0.01 0.18 0.10 92 1008.1
20210614100522 61 162 0.0 2.0 0.01 0.18 0.10 92 1008.1
20210614100019 61 162 0.0 1.0 0.01 0.18 0.10 92 1008.0
20210614095514 61 162 0.0 0.0 0.02 0.18 0.10 92 1008.0
20210614095014 62 162 0.0 2.0 0.01 0.17 0.09 92 1007.9
20210614094535 62 162 0.0 2.0 0.01 0.17 0.09 92 1007.8
20210614094013 62 162 0.0 3.0 0.01 0.17 0.09 92 1007.7
20210614093512 62 162 0.0 3.0 0.01 0.17 0.09 92 1007.5
20210614093041 62 162 0.0 3.0 0.01 0.17 0.09 92 1007.5
20210614092512 62 162 0.0 4.0 0.01 0.17 0.09 92 1007.4
20210614092024 62 162 1.0 4.0 0.01 0.17 0.09 92 1007.4
20210614091010 62 162 1.0 5.0 0.01 0.17 0.09 92 1007.5
20210614090515 62 166 1.0 4.0 0.01 0.17 0.09 92 1007.6
20210614090035 62 166 1.0 4.0 0.02 0.17 0.09 92 1007.5
20210614085510 62 166 0.0 3.0 0.02 0.17 0.09 92 1007.4
20210614085010 63 166 0.0 4.0 0.01 0.16 0.08 92 1007.4
20210614084535 63 166 0.0 4.0 0.01 0.16 0.08 92 1007.5
20210614084019 63 166 2.0 4.0 0.01 0.16 0.08 91 1007.5
20210614083510 62 167 1.0 3.0 0.01 0.16 0.08 91 1007.4
20210614083106 63 167 0.0 3.0 0.01 0.16 0.08 91 1007.3
20210614082511 63 167 0.0 5.0 0.01 0.16 0.08 91 1007.3
20210614082009 63 167 2.0 5.0 0.01 0.16 0.08 91 1007.5
20210614081007 63 171 1.0 4.0 0.02 0.16 0.08 90 1007.6
20210614080508 63 172 0.0 5.0 0.02 0.16 0.08 90 1007.6
20210614080008 63 168 2.0 5.0 0.02 0.16 0.08 90 1007.6
20210614075508 63 170 1.0 8.0 0.01 0.15 0.07 90 1007.7
20210614075011 63 170 2.0 8.0 0.01 0.15 0.07 90 1007.8
20210614074512 63 181 1.0 4.0 0.01 0.15 0.07 90 1007.8
20210614074011 63 181 1.0 4.0 0.01 0.15 0.07 90 1007.9
20210614073507 64 182 0.0 3.0 0.02 0.15 0.07 90 1007.9
20210614073014 64 182 1.0 4.0 0.02 0.15 0.07 90 1007.9
20210614072506 64 181 0.0 4.0 0.02 0.15 0.07 91 1008.1